Theta_e
307 307 307 308 308 309 309 309 310 310 310 311 312 312 311 310 311 310 311 313 310 312 314 306 304 309 304 300 301 302 301 300 301 302 301 302 302 303 304 304 305 306 304 306 307 307 308 309 306 306 307 304 301 299 298 298 299 301 305 303 299 302 305 307 310 310 306 300 296 295 295 298 304 306 304 306 310 311 311 311 310 308 307 307 307 309 312
307 307 307 307 308 309 309 309 310 310 310 311 311 311 311 309 309 310 311 313 312 314 316 315 313 307 302 302 302 302 301 300 303 303 302 303 303 305 307 304 302 303 301 304 306 304 306 308 304 304 309 305 298 297 298 299 299 301 303 302 300 304 309 307 308 311 309 309 309 305 301 302 306 308 305 304 306 307 306 304 304 307 308 309 311 312 311
307 307 307 307 308 308 309 309 310 309 310 310 311 311 311 310 310 309 309 311 311 310 309 314 319 311 307 307 305 303 303 302 302 302 301 301 301 303 305 302 302 303 302 305 306 302 304 305 303 303 306 304 297 296 298 297 298 299 299 298 298 302 307 305 306 309 308 311 315 312 309 306 305 307 305 302 304 306 306 306 306 308 307 305 309 313 308
306 307 307 307 307 308 308 309 309 310 310 309 311 311 310 311 313 311 312 311 308 306 303 306 315 315 311 309 304 305 306 303 300 301 302 301 300 302 302 300 302 305 305 309 311 306 304 302 304 307 308 305 298 296 298 296 296 298 297 297 299 302 304 304 307 310 309 309 309 306 304 304 304 306 306 305 303 302 305 309 309 309 307 305 307 308 307
306 306 306 307 308 307 308 308 308 309 309 309 311 310 309 311 310 309 312 310 308 309 305 303 306 308 309 308 303 305 309 304 301 302 303 302 301 302 302 300 303 307 307 309 311 310 307 304 304 307 308 305 297 294 296 295 296 297 296 297 300 304 306 305 306 308 307 306 306 302 301 302 302 303 305 307 305 302 304 308 307 307 307 307 306 306 306
305 305 306 306 307 307 307 308 308 308 309 309 310 309 309 311 307 303 307 309 308 311 308 303 301 301 305 306 304 309 313 307 304 304 302 301 301 303 306 304 304 305 304 305 308 309 310 309 308 307 306 304 301 298 296 294 295 296 295 296 298 302 307 305 303 305 305 303 302 300 300 301 301 302 302 303 304 304 304 305 304 305 306 305 305 306 306
309 307 306 306 306 307 307 307 308 308 308 309 310 309 307 308 307 304 305 306 304 305 305 303 302 302 304 307 306 309 312 306 304 303 302 304 302 302 306 307 305 303 302 304 308 309 308 307 308 309 307 304 305 305 301 297 294 294 296 296 295 300 308 304 300 303 304 302 302 301 300 301 302 302 302 300 302 303 303 303 302 302 304 304 303 304 303
314 312 310 307 306 306 306 307 307 307 308 309 309 309 306 307 307 305 306 306 302 303 303 303 307 307 306 308 306 306 310 308 305 303 304 306 305 302 306 308 306 301 300 304 307 307 305 304 303 303 305 305 306 307 305 302 297 295 297 298 295 298 306 304 301 304 304 303 305 303 302 302 303 303 302 300 301 301 300 300 300 301 302 302 301 301 302
315 315 314 311 309 308 306 307 307 306 308 309 308 307 306 307 307 306 308 306 302 304 301 301 312 315 308 307 306 306 309 307 303 304 303 303 305 305 304 305 304 301 303 308 308 303 301 303 301 300 301 304 304 302 301 302 303 301 298 297 297 297 303 305 303 305 307 306 304 304 302 301 304 306 305 303 305 306 303 299 299 301 303 302 301 303 305
313 314 315 314 313 311 308 307 307 306 307 307 307 306 305 306 307 306 308 308 302 302 301 302 312 312 304 304 304 304 306 303 301 306 304 301 304 305 302 302 304 307 308 308 306 302 300 301 301 300 300 300 300 299 298 299 304 305 300 298 297 296 301 305 302 305 313 308 301 301 301 302 309 314 313 308 307 308 306 302 300 300 301 304 306 307 306
311 311 313 313 314 313 310 308 306 306 307 306 305 305 305 306 307 305 308 310 303 299 302 307 309 305 302 303 303 302 302 301 302 305 305 303 302 303 303 301 304 309 308 304 302 301 300 300 300 299 299 299 298 299 298 296 298 300 300 301 299 296 299 302 299 304 313 308 302 303 303 307 315 316 311 306 304 305 306 307 306 302 300 304 307 305 304
309 309 310 311 312 314 313 311 308 306 306 304 304 305 304 304 306 305 307 311 305 300 304 306 303 302 302 302 302 302 301 302 302 302 304 303 302 303 303 301 303 307 304 300 301 301 300 300 299 297 297 298 298 297 297 296 296 295 297 300 303 301 301 301 299 303 308 306 305 306 306 312 315 310 306 302 300 301 303 305 307 304 300 302 304 304 303
308 308 308 309 310 312 313 313 312 309 306 305 305 305 304 304 305 304 305 309 307 302 304 304 300 300 302 301 300 302 302 302 302 301 301 302 302 302 302 301 302 302 300 300 301 299 300 303 302 300 298 297 297 297 297 297 296 295 294 297 301 304 303 301 301 303 304 305 305 305 305 308 307 305 305 302 300 302 304 306 309 307 304 304 304 305 303
306 306 307 307 308 309 311 312 313 312 311 310 307 304 303 304 304 304 304 306 305 301 301 304 303 301 302 301 301 302 301 301 302 301 300 301 301 301 301 301 301 300 300 300 299 299 302 306 309 310 307 305 303 301 301 297 294 295 295 294 296 300 303 303 302 302 303 304 306 306 304 304 307 308 307 305 305 307 307 308 309 307 305 305 306 307 304
305 305 306 306 306 307 308 310 311 312 312 313 310 307 305 305 304 304 303 303 305 303 301 304 304 302 301 302 302 303 303 302 302 301 300 299 301 301 301 301 300 300 300 299 299 302 304 304 307 310 310 310 307 303 304 302 296 293 294 293 292 294 299 302 301 303 303 303 306 309 306 306 309 309 305 303 305 305 304 306 307 306 304 303 305 308 303
304 304 304 305 305 305 305 306 308 309 310 311 312 311 310 309 307 306 303 303 305 306 303 302 303 303 302 302 302 302 304 303 302 304 306 304 301 301 302 301 300 300 300 298 299 303 305 305 306 306 307 306 304 303 305 305 302 296 292 293 294 294 297 300 300 302 304 303 305 309 307 307 308 306 303 303 303 302 302 305 308 308 304 301 302 303 300
303 303 303 304 304 304 304 304 304 306 307 308 310 311 312 312 311 309 308 305 303 303 303 302 302 302 302 302 302 301 302 301 301 305 309 306 301 301 302 301 300 300 300 301 303 305 307 308 305 305 309 306 301 303 305 304 306 303 297 296 298 298 300 301 301 303 304 304 306 307 305 306 307 304 302 301 301 302 304 306 308 306 303 301 301 300 299
302 302 302 302 302 302 303 303 303 304 304 305 307 309 310 311 312 312 311 310 306 303 302 301 301 301 302 302 303 302 302 302 301 302 303 301 300 302 302 300 300 300 300 302 306 306 307 308 304 304 309 305 299 302 306 304 305 305 301 300 301 300 299 298 300 304 303 301 305 306 305 306 305 302 302 301 301 303 306 307 306 303 301 301 301 300 300
301 301 301 301 301 302 302 302 303 303 304 304 305 306 308 309 310 310 311 313 311 306 302 301 302 302 301 301 301 301 301 301 301 302 303 302 301 301 301 300 300 300 299 300 304 304 305 308 304 300 304 308 304 303 304 304 305 305 302 303 303 303 301 299 300 302 301 300 303 304 305 306 302 300 302 302 302 305 306 305 303 301 301 302 301 300 300
301 301 301 301 301 301 301 302 302 302 303 303 303 305 306 307 308 309 309 312 312 306 304 305 304 301 300 301 301 302 302 301 301 301 301 302 301 300 303 304 302 301 301 301 304 304 304 307 304 299 304 310 307 302 303 307 308 306 304 306 306 305 307 309 307 302 300 301 303 305 308 308 302 301 304 303 303 305 304 302 302 302 301 300 300 300 299
300 300 300 300 301 301 301 301 301 301 302 302 302 304 305 305 306 307 307 309 311 308 305 305 303 302 304 305 306 306 306 304 303 301 300 301 301 301 303 304 302 303 303 303 303 303 302 305 304 302 303 304 301 302 307 309 309 304 300 302 305 303 306 311 309 304 304 307 308 307 308 306 302 302 304 304 303 304 302 301 301 300 300 299 299 299 299
300 300 300 300 300 300 300 300 300 301 301 301 302 302 303 304 304 305 307 308 309 309 305 303 303 306 309 309 309 309 308 307 306 305 302 301 301 301 302 301 301 302 302 301 302 302 302 303 303 302 304 303 301 305 306 304 306 306 300 300 304 305 305 307 306 305 306 307 307 305 303 302 301 301 302 303 303 302 301 300 300 299 300 299 299 299 300
300 300 300 299 299 300 300 300 300 300 300 301 301 301 302 303 302 303 306 308 307 306 303 302 305 309 309 309 308 308 308 308 308 307 305 303 302 302 302 301 301 302 301 300 301 301 300 301 301 300 303 304 301 304 304 302 306 309 303 301 303 302 300 300 303 306 305 302 303 303 302 302 303 302 302 303 302 301 300 300 300 300 300 300 299 299 300
299 299 299 299 299 299 299 300 300 300 300 300 300 301 302 303 303 304 306 306 306 306 304 304 306 308 308 308 308 308 308 307 307 306 304 304 303 302 302 301 300 301 301 300 301 300 299 299 298 298 302 302 299 301 304 304 305 306 303 304 306 302 298 299 303 306 304 301 302 302 301 302 303 302 303 302 301 301 301 301 300 300 300 299 299 299 299
299 299 298 298 298 298 299 300 299 300 300 300 300 301 302 303 303 303 303 304 306 307 307 307 306 305 306 307 307 307 306 306 306 306 305 304 304 303 302 301 301 301 300 300 300 300 299 300 299 299 302 302 299 301 304 303 302 301 301 304 307 303 300 301 304 304 302 302 302 302 302 304 304 303 302 301 301 302 302 300 300 299 298 299 299 298 299
298 298 298 297 298 297 298 299 299 299 299 299 300 301 302 303 303 301 301 302 305 306 307 307 305 304 305 307 307 305 305 306 306 306 306 305 305 304 303 302 301 300 300 299 299 299 299 299 298 299 301 301 299 301 304 303 300 300 300 302 302 301 300 301 303 303 302 302 302 302 303 304 304 302 301 300 302 302 300 299 299 298 298 298 298 298 298
296 297 297 297 297 297 297 298 299 299 299 299 300 300 302 303 302 300 300 301 303 305 304 304 304 304 305 306 306 305 305 305 305 305 305 306 306 305 305 304 303 301 300 299 299 299 298 297 298 298 300 300 298 299 300 299 298 299 301 300 299 300 301 301 302 303 303 303 303 303 303 303 303 302 300 301 302 301 300 299 299 298 298 298 298 298 298
296 296 296 297 297 297 298 298 298 298 298 299 299 300 302 302 301 300 300 300 301 303 303 302 303 304 304 306 306 305 304 304 304 305 305 305 306 306 305 305 304 303 301 300 299 298 297 298 299 299 297 298 299 299 298 297 297 300 302 301 300 300 301 302 303 304 303 302 302 303 302 301 301 301 300 301 301 300 300 299 299 298 298 298 297 298 297
296 296 296 297 297 297 298 298 298 298 298 299 299 300 301 302 301 299 299 299 299 300 301 303 304 304 304 305 305 304 304 304 305 305 305 305 305 305 305 305 304 303 302 301 299 298 297 298 299 299 298 299 300 300 299 300 301 301 301 301 301 301 301 301 302 302 302 302 302 302 300 300 300 301 301 301 300 300 299 299 298 298 298 298 298 298 297
296 296 296 297 297 297 297 298 298 298 298 299 299 299 300 301 301 299 298 298 298 299 300 302 304 304 304 304 303 303 304 305 304 304 304 304 304 304 304 304 303 302 302 302 300 299 299 298 298 299 299 299 299 299 300 302 303 302 301 301 301 301 301 301 301 301 301 302 301 301 300 300 301 301 301 300 300 299 299 298 298 298 298 298 298 297 297
295 296 296 297 297 297 297 297 298 298 297 298 299 299 300 300 300 298 297 297 298 299 300 302 304 303 303 303 303 303 303 304 304 304 304 303 303 304 304 303 303 302 302 301 300 299 298 299 299 299 299 299 299 299 300 302 303 303 302 302 302 302 302 302 302 302 302 301 301 301 301 301 301 301 301 300 299 298 298 297 297 297 297 297 297 297 297
296 296 296 296 297 297 297 297 297 297 297 298 298 298 298 298 297 297 297 297 298 299 301 304 306 305 302 302 302 302 303 303 303 303 303 303 303 303 303 303 303 303 301 301 300 299 298 299 299 299 299 300 298 297 298 301 302 302 303 302 302 303 303 302 302 302 301 301 301 301 301 301 300 300 300 299 298 297 297 297 296 296 297 297 297 297 297
296 296 296 296 297 297 297 297 297 297 297 298 298 297 296 295 296 297 297 298 299 300 301 303 304 303 302 302 302 302 302 303 303 302 302 303 302 303 303 303 303 302 301 300 300 300 300 299 298 298 299 300 297 296 300 302 301 301 303 303 303 303 302 302 302 302 301 301 301 301 301 301 300 300 300 299 298 297 297 296 296 296 296 297 297 297 297
295 296 296 296 296 296 297 297 297 297 297 297 297 296 295 296 297 298 299 299 300 302 301 300 301 302 303 302 302 302 302 302 302 302 302 302 302 302 302 302 301 301 301 301 300 300 300 300 298 299 300 298 296 297 301 303 301 302 303 303 303 303 302 302 302 302 301 302 301 300 300 300 299 299 299 298 298 297 296 296 296 296 296 296 296 296 296
295 295 296 296 296 296 296 297 297 297 297 297 296 295 296 297 298 299 300 300 300 301 302 300 301 303 305 305 306 304 302 301 302 302 301 302 302 302 302 301 301 302 302 301 300 299 299 299 300 301 299 297 298 300 302 301 301 302 303 303 303 302 301 301 302 302 301 301 301 300 300 299 299 298 298 297 297 296 296 296 296 296 296 296 296 296 296
295 295 296 296 296 296 296 297 297 297 296 296 296 296 297 299 299 300 301 301 301 301 301 301 302 302 303 305 306 303 301 301 302 301 301 302 302 301 301 301 302 302 301 300 298 298 299 300 301 301 299 299 301 303 302 301 302 303 303 303 303 302 301 301 302 301 301 300 300 300 300 299 298 298 297 296 296 295 295 296 296 296 296 296 296 296 296
294 295 295 295 296 296 296 297 297 296 295 296 296 296 298 300 301 301 302 301 302 302 301 301 302 301 301 303 303 302 301 302 301 300 301 302 301 300 301 301 302 302 302 301 301 301 300 300 301 302 302 302 302 302 301 301 303 303 302 303 302 301 301 301 301 300 300 299 299 299 299 298 298 297 296 296 295 295 295 295 295 295 296 296 296 296 296
294 295 295 295 295 295 295 296 296 295 295 296 297 297 299 300 301 302 301 301 302 303 302 301 302 302 301 302 303 302 302 301 300 300 300 300 300 301 301 301 301 301 302 303 302 301 301 300 300 301 303 302 301 301 302 302 302 302 302 302 301 301 300 300 300 299 299 299 298 298 298 297 297 296 296 295 295 295 295 295 295 295 295 295 295 296 296
294 294 294 295 295 295 295 295 296 296 296 297 298 299 299 300 301 301 301 301 302 302 301 301 301 301 301 301 301 301 301 300 300 300 299 299 301 301 301 301 301 300 301 303 301 299 301 303 300 300 302 301 299 300 302 302 302 302 301 300 300 300 300 299 299 299 298 298 298 298 297 297 296 296 295 295 294 294 294 294 295 295 295 295 295 295 295
293 294 294 294 294 295 295 295 296 298 298 298 300 300 300 300 301 300 301 303 305 303 301 301 301 301 301 300 299 300 300 300 300 300 298 299 300 299 299 300 300 298 301 304 301 298 301 303 301 300 302 300 299 300 301 301 301 301 301 300 300 300 299 299 298 298 297 297 297 296 296 295 295 295 294 294 294 294 294 294 294 294 295 295 295 295 295
293 293 294 294 294 295 296 297 299 300 299 299 300 300 299 299 300 299 300 303 305 302 300 300 300 300 299 299 299 299 299 299 300 299 297 298 299 298 299 300 298 298 301 303 299 297 299 302 303 303 302 300 299 301 301 300 300 300 300 299 299 298 298 298 297 297 296 296 296 295 295 294 294 294 294 294 294 294 294 294 294 294 294 294 295 295 295
292 293 294 294 295 295 296 298 300 300 299 299 300 299 297 297 299 299 299 300 301 300 300 299 299 298 299 298 298 298 299 299 299 298 298 298 299 299 298 298 298 300 302 300 297 296 298 301 304 304 301 299 300 301 300 299 299 298 298 297 297 297 297 296 296 296 295 295 294 294 293 293 293 293 293 293 293 293 294 294 294 294 294 294 294 294 295
292 293 294 294 295 296 297 298 299 299 299 301 301 300 300 299 298 298 299 300 299 299 299 299 298 298 299 299 298 298 299 299 298 298 298 298 298 298 298 298 300 300 299 297 297 299 300 302 303 302 299 298 300 299 298 298 297 297 296 296 296 295 295 295 295 295 294 294 293 293 292 292 292 292 293 293 293 293 293 293 293 294 294 294 294 294 295
293 294 294 295 295 296 297 298 298 299 300 300 300 300 301 300 299 299 301 301 299 298 298 298 297 297 298 297 297 298 298 298 298 298 298 298 298 299 300 302 301 298 296 297 300 301 300 300 301 299 297 298 299 298 297 297 296 295 296 295 295 295 295 294 294 294 293 293 292 292 292 292 292 292 293 293 293 293 293 293 293 293 294 294 294 294 294
293 294 295 295 295 296 296 297 299 299 299 299 300 301 301 299 298 300 301 300 298 298 298 297 297 296 296 296 297 297 297 298 298 298 297 297 298 300 301 301 299 297 297 300 302 300 299 299 299 298 297 298 297 296 296 296 295 294 295 294 294 294 294 293 293 293 292 292 292 292 292 292 292 292 292 292 292 293 293 293 293 293 294 294 294 294 294
293 294 294 295 296 296 296 298 299 298 296 296 298 299 298 297 297 299 299 298 298 298 297 296 296 296 295 295 296 296 296 297 297 297 297 297 298 299 298 297 297 298 299 301 301 299 299 299 298 297 297 297 295 295 295 295 294 294 294 293 293 293 292 292 292 292 291 291 291 291 292 292 292 292 292 292 292 293 293 293 293 293 294 294 294 294 294
293 293 293 296 298 297 296 297 298 297 295 296 298 298 298 298 298 299 298 298 297 297 296 296 296 295 294 294 295 296 296 296 297 297 296 296 298 299 298 297 297 298 299 299 299 299 298 298 297 297 297 296 294 294 294 294 293 293 293 292 292 292 291 291 291 291 291 291 291 291 292 292 292 292 292 292 292 293 293 293 293 293 293 293 294 294 294
291 292 294 296 297 296 295 296 296 295 295 296 296 297 297 297 297 297 297 296 295 295 295 295 294 294 293 293 294 294 294 295 296 296 295 296 297 297 298 298 298 298 299 300 299 298 297 297 296 296 296 294 294 293 293 293 293 293 292 292 292 291 291 291 291 291 291 291 291 291 292 292 292 292 292 292 292 293 293 293 293 293 293 293 293 293 294
291 292 294 294 294 294 294 294 294 294 295 295 295 295 295 295 294 293 293 293 293 294 294 294 293 293 293 293 293 293 293 294 295 294 295 297 298 297 296 297 297 297 298 299 298 296 296 296 295 295 294 294 293 293 293 292 292 292 291 291 291 291 291 291 291 291 291 291 291 291 292 291 292 292 292 292 292 292 292 293 293 293 293 293 293 293 293
292 292 293 293 294 294 293 293 293 293 293 293 293 293 293 293 292 291 291 292 293 294 293 293 293 293 293 293 294 294 293 294 294 294 294 296 298 297 296 297 297 296 297 296 295 294 295 295 294 293 293 292 292 292 292 292 292 291 291 291 291 291 291 291 291 291 291 291 291 291 291 291 291 292 292 292 292 292 292 292 293 293 292 293 293 293 293
291 292 292 293 293 293 293 293 293 292 291 291 292 291 291 292 291 290 290 291 292 293 293 292 292 292 292 293 294 294 292 292 294 295 295 296 297 296 296 295 295 295 295 294 294 294 293 293 292 292 292 292 292 292 292 291 291 291 291 291 291 291 291 291 291 291 291 291 291 291 291 291 291 291 292 292 292 292 292 292 292 292 292 292 292 292 292
290 291 291 291 291 291 291 292 292 292 291 291 291 290 290 290 290 289 290 291 292 292 293 292 292 292 292 292 293 293 292 292 293 293 293 294 295 295 294 294 293 293 293 293 292 292 292 292 292 292 292 291 291 291 291 290 290 290 290 291 291 291 290 290 290 290 291 291 291 291 291 291 291 291 291 291 292 292 292 292 292 292 292 292 291 292 292
Wind_Speed
28 31 32 33 31 26 22 20 17 15 12 11 9 10 14 14 10 12 12 6 6 8 6 6 5 4 3 2 3 2 1 2 1 1 1 1 1 1 0 0 1 1 1 1 1 1 2 2 2 1 3 2 2 2 3 2 2 2 1 1 0 1 2 1 5 5 4 4 4 2 1 2 1 2 2 4 3 4 5 5 4 2 3 2 2 3 10
27 29 30 32 32 29 25 21 19 17 14 10 9 11 15 17 17 19 15 5 4 6 4 2 2 2 1 3 4 3 2 3 2 1 1 1 1 1 1 1 1 1 1 2 1 1 1 1 1 0 2 2 2 1 2 1 1 1 1 1 2 1 1 1 3 7 7 6 6 5 3 0 3 3 1 2 4 6 4 3 3 2 5 7 4 5 10
25 27 28 30 31 31 28 24 21 19 17 12 7 7 9 9 12 20 22 14 11 10 5 5 5 1 2 4 4 3 3 4 4 2 2 3 2 1 2 1 1 1 2 2 1 1 1 1 2 2 1 3 1 0 2 2 1 1 2 3 3 2 2 2 1 2 4 6 6 4 3 2 2 1 2 2 4 7 3 2 3 3 4 6 6 7 10
24 25 27 28 30 31 30 28 25 21 20 16 9 6 6 4 4 9 16 20 22 19 12 8 6 3 3 3 3 2 2 2 3 3 2 2 2 1 1 1 2 2 2 2 2 2 1 1 1 1 3 3 2 1 3 3 3 2 3 4 3 1 1 4 6 6 7 8 9 4 1 1 5 4 4 4 5 5 5 4 3 5 3 3 9 12 12
23 24 25 26 28 30 30 30 29 26 22 16 10 11 10 6 3 4 6 11 16 18 17 14 7 3 2 2 1 2 2 3 2 2 1 1 1 1 0 0 1 0 1 2 2 2 1 1 1 2 4 4 3 2 4 3 3 3 4 4 2 3 2 5 8 10 11 12 11 4 3 5 9 8 6 6 6 6 7 6 7 5 4 7 12 8 8
24 24 24 25 26 27 29 30 29 28 24 16 13 19 16 8 4 5 5 4 4 6 11 13 11 7 3 2 1 2 3 4 2 1 2 2 1 2 2 1 0 2 2 1 1 3 3 2 2 2 2 3 3 3 2 2 2 1 3 2 3 3 4 4 4 8 10 11 13 7 3 7 7 8 12 8 7 9 12 14 10 8 6 13 11 5 8
25 25 25 25 25 26 27 28 28 28 25 16 15 21 18 11 8 8 9 7 3 3 4 5 9 9 5 3 2 3 3 4 3 1 1 3 2 2 2 4 4 2 2 1 0 2 3 4 4 1 1 3 2 3 3 1 1 1 2 1 1 2 3 2 1 7 9 10 13 7 4 6 6 11 14 8 9 13 15 14 10 8 12 19 17 14 16
24 25 25 25 25 25 26 27 26 26 23 19 22 25 18 12 10 8 10 11 8 7 5 3 5 6 5 4 2 1 2 2 4 1 1 2 2 2 1 4 4 1 0 1 2 4 2 4 6 1 0 3 1 2 2 2 2 2 2 1 1 2 3 1 3 5 8 6 7 4 3 5 7 13 14 7 9 11 11 10 7 6 13 17 14 13 16
21 22 23 24 24 24 25 25 25 25 23 23 29 28 19 14 11 8 8 7 7 7 5 3 4 4 4 3 0 1 1 1 3 2 2 2 2 2 1 2 2 1 2 1 6 7 4 7 9 5 4 5 4 3 2 3 3 1 1 0 1 2 3 3 5 5 7 3 6 8 6 5 6 15 15 7 7 7 7 7 6 8 9 8 5 6 10
20 20 21 22 22 23 23 24 24 24 24 26 28 25 20 16 12 9 8 4 5 7 5 4 5 2 2 0 1 2 1 2 1 1 1 1 1 2 2 1 1 2 3 4 7 7 7 8 9 8 9 10 8 6 5 2 4 4 3 1 0 3 1 2 4 3 6 5 7 9 8 6 6 10 8 5 6 5 4 5 8 10 7 3 4 7 8
18 19 19 19 20 21 22 22 23 22 24 26 25 23 21 18 14 10 8 5 4 7 5 5 5 1 2 2 2 2 2 1 1 1 1 1 2 4 3 1 1 2 4 5 7 10 10 10 11 10 10 9 8 6 5 3 2 4 5 3 1 3 3 0 0 1 6 9 9 8 7 5 6 7 6 4 8 8 7 8 10 11 8 5 7 9 10
18 18 18 18 18 19 20 21 21 22 23 23 20 20 21 20 16 13 9 5 3 5 4 4 2 0 2 2 2 2 2 2 2 2 4 5 5 5 4 1 1 3 5 7 11 12 12 11 10 9 7 4 2 1 2 2 2 1 4 5 3 3 3 1 1 2 5 7 7 8 6 5 9 8 3 4 6 7 9 10 12 11 10 10 13 14 15
17 17 17 17 17 17 18 19 19 20 21 19 17 19 20 18 17 16 11 6 1 3 3 2 2 3 3 3 3 3 4 4 4 5 5 7 6 5 4 3 3 6 8 10 12 11 8 6 5 4 3 1 2 3 3 3 3 2 2 4 4 5 4 2 1 2 3 4 4 3 7 11 14 11 2 2 1 2 1 7 12 11 8 10 12 15 18
16 16 16 16 16 16 15 16 16 17 18 17 17 18 17 16 17 17 13 7 1 2 4 2 5 7 5 3 4 5 4 4 5 5 5 6 6 5 5 5 6 8 9 9 9 6 3 3 5 4 4 4 4 2 2 3 4 4 3 0 4 6 4 2 1 2 2 0 2 5 7 12 12 5 2 1 1 2 2 2 10 12 7 9 10 12 14
17 16 16 15 15 15 14 14 14 14 15 16 16 15 15 15 16 16 14 9 4 3 6 4 5 9 6 4 6 6 4 4 4 5 5 4 4 5 6 6 7 7 7 6 5 3 2 2 3 4 5 4 3 3 1 1 2 4 4 1 3 4 3 4 3 1 2 2 3 5 5 7 8 5 3 2 3 3 4 2 7 12 10 8 9 9 12
17 17 17 17 16 16 15 14 13 13 13 13 12 12 12 14 15 14 13 11 6 3 6 6 6 9 7 5 7 7 3 4 5 5 4 3 4 6 7 7 6 4 5 6 3 4 3 1 1 0 3 2 1 3 3 1 2 3 3 4 4 4 2 3 3 2 1 3 1 2 3 7 10 8 4 2 0 1 3 2 7 7 7 9 5 9 15
16 17 18 18 18 18 17 16 14 13 12 11 11 11 11 12 13 12 12 12 9 5 8 10 9 10 7 4 6 6 3 4 5 3 3 5 5 7 9 7 4 2 6 6 3 3 4 1 1 1 4 3 1 2 4 1 2 4 2 4 5 4 4 2 2 3 2 3 2 3 5 9 11 9 7 6 5 1 4 6 9 6 13 20 16 17 23
15 16 17 17 18 19 19 19 18 16 14 12 11 10 10 11 11 11 11 11 10 7 9 11 10 10 9 6 5 5 4 6 4 2 3 5 4 7 9 7 3 3 6 5 2 3 2 1 1 1 4 3 0 1 3 1 2 4 1 2 1 1 0 1 2 3 3 4 3 5 5 8 10 9 6 3 1 1 3 6 9 14 26 33 28 27 29
15 16 16 17 18 18 19 19 19 19 18 16 12 11 11 11 11 10 10 11 10 8 10 12 12 11 10 8 7 6 7 7 5 3 3 3 5 10 11 6 2 3 3 2 2 1 1 2 2 2 2 5 1 0 2 2 2 2 2 1 3 1 1 0 2 2 2 3 3 3 7 8 7 5 1 2 1 4 5 11 21 29 32 35 35 33 30
15 15 16 16 17 18 18 18 19 19 19 18 16 14 13 13 12 11 11 11 10 9 9 12 13 12 12 12 11 10 10 9 6 3 1 2 7 11 8 3 3 4 2 2 1 0 1 3 3 1 2 4 1 0 2 4 3 4 4 4 5 4 2 2 3 4 1 1 0 3 7 5 3 4 3 3 2 10 15 21 33 37 33 32 35 36 32
13 14 15 15 16 17 18 18 19 19 18 18 17 15 13 14 13 12 11 10 8 7 8 11 13 15 16 16 16 14 12 11 8 6 3 5 7 6 1 2 4 4 1 1 1 1 2 2 2 1 2 2 1 1 2 4 7 5 4 3 3 4 4 3 4 3 3 2 2 4 5 5 2 1 4 8 15 25 27 25 29 35 35 32 33 36 37
14 15 16 16 17 18 18 19 19 19 19 19 16 14 14 15 15 13 11 9 8 7 8 11 14 15 16 16 17 16 14 13 12 10 7 6 6 4 6 9 7 4 3 1 1 2 2 1 0 2 3 2 2 3 2 2 7 7 1 1 3 5 6 3 4 4 5 5 10 13 16 21 17 10 14 25 30 30 27 24 26 31 34 32 32 36 39
15 16 17 18 19 19 19 19 19 19 20 20 18 18 18 18 17 14 11 9 8 10 12 10 9 12 16 16 16 15 15 15 14 13 10 6 6 6 8 8 6 5 4 3 2 2 2 1 0 2 3 2 2 3 3 3 5 5 3 3 4 5 6 3 2 3 5 12 20 21 23 30 28 21 23 28 27 25 26 25 26 28 29 30 30 32 34
16 17 18 18 19 19 19 19 19 20 20 20 21 20 18 17 18 16 12 10 7 9 9 7 6 12 16 14 13 14 15 15 15 14 12 8 5 6 5 5 5 4 4 4 5 5 4 3 1 0 2 3 2 2 5 5 4 2 3 5 4 2 2 3 3 4 6 9 15 18 22 29 35 35 29 22 21 25 26 24 25 28 28 28 28 28 29
16 17 17 18 18 19 19 19 19 19 19 19 19 17 14 16 19 18 16 13 8 7 5 3 5 12 14 10 12 13 13 15 16 16 15 13 9 7 7 8 9 10 10 12 12 10 7 5 3 1 3 5 4 3 3 4 3 2 1 4 3 2 4 3 3 5 6 10 18 26 33 41 41 28 17 21 30 28 23 22 24 27 28 28 30 30 30
16 16 17 17 18 18 18 18 18 18 17 17 17 16 15 16 18 18 18 16 9 5 4 2 5 10 10 9 11 12 11 14 17 16 15 16 14 11 11 11 11 12 13 14 14 12 9 6 3 2 3 5 5 4 4 5 6 4 3 6 5 4 7 4 2 4 7 11 18 23 26 36 35 15 8 25 34 25 22 25 26 28 31 32 33 33 32
16 16 16 16 17 17 17 16 16 16 16 15 15 15 14 15 17 18 20 18 10 4 3 5 6 7 8 7 9 10 11 14 16 15 16 16 15 14 14 12 10 10 10 9 10 9 6 4 3 4 6 7 7 7 6 7 6 4 4 7 6 5 6 2 2 3 6 8 16 20 15 20 27 23 22 29 27 20 23 28 28 31 34 33 35 37 36
15 15 15 15 15 15 15 14 14 15 15 14 13 13 12 13 17 19 19 18 14 6 5 7 7 5 6 6 8 9 12 14 14 14 16 16 15 16 15 13 12 11 8 6 5 5 5 4 4 4 5 5 6 6 5 4 4 3 5 8 10 9 8 5 4 5 10 17 27 30 21 20 30 36 33 27 21 21 25 27 29 32 33 33 35 38 39
13 14 13 13 13 13 13 13 13 13 13 13 12 11 10 11 15 18 17 17 17 12 8 6 5 4 4 5 8 11 12 13 13 14 14 15 16 16 16 15 13 10 8 6 6 7 8 9 8 7 7 6 4 3 3 2 4 6 9 12 13 12 11 9 8 9 18 29 36 33 27 26 30 31 25 19 20 24 27 29 31 33 33 34 35 35 36
12 12 11 11 11 11 11 11 11 11 12 12 11 10 8 9 13 18 19 18 16 14 9 5 3 3 3 5 9 12 12 12 13 14 14 14 15 15 16 16 14 11 10 8 8 8 8 8 8 8 10 11 7 1 1 2 3 7 14 18 16 15 15 17 18 18 25 35 37 30 24 23 20 19 18 19 24 27 29 31 34 34 34 35 35 35 35
11 10 10 10 10 9 9 9 10 10 11 12 11 9 8 8 12 17 18 16 14 13 8 4 2 2 2 4 8 12 14 14 14 15 15 14 14 16 17 17 15 12 11 11 10 9 7 7 6 5 8 11 8 3 2 2 2 9 20 23 19 20 25 29 32 31 31 31 27 18 14 14 14 15 19 23 27 30 31 34 36 36 35 35 35 35 35
9 9 9 9 8 8 8 8 9 10 10 11 10 10 9 10 13 15 15 14 13 10 6 3 3 3 3 5 8 11 15 16 16 17 17 15 16 18 17 16 16 15 12 10 9 7 6 7 7 6 7 9 7 3 2 3 4 16 30 31 26 28 33 34 35 32 24 17 13 10 10 14 16 18 21 24 28 31 33 35 36 37 37 36 36 36 36
8 8 8 8 8 8 8 8 9 10 9 9 9 9 10 11 12 12 12 10 9 8 6 4 2 1 4 6 7 10 15 17 15 17 18 16 17 19 17 17 17 14 9 8 7 5 5 5 6 6 8 9 8 2 1 6 15 28 36 35 33 33 32 31 30 22 11 6 8 9 12 16 19 21 24 27 30 33 35 36 38 39 39 40 39 38 39
8 8 8 8 9 8 8 8 9 9 10 10 9 10 11 10 9 9 8 7 6 5 5 5 2 1 4 5 4 7 15 17 14 15 16 16 18 21 17 15 13 9 6 7 6 5 7 7 5 4 4 7 7 2 2 11 25 32 31 32 34 31 28 26 21 10 5 5 8 11 15 19 22 24 28 31 34 37 39 39 39 40 41 43 42 40 40
8 7 8 8 9 8 8 8 8 9 11 11 11 11 10 8 6 6 6 6 5 3 3 4 3 1 3 4 3 6 15 16 13 13 15 15 17 19 14 9 7 5 5 6 5 5 6 5 4 3 2 4 4 4 6 14 24 28 28 32 34 29 25 21 12 6 6 11 13 15 21 23 24 28 32 34 36 39 41 41 41 39 40 42 43 43 42
7 7 8 8 7 8 8 7 8 10 12 12 12 12 9 5 4 5 5 7 6 3 2 3 3 2 1 2 4 8 15 14 12 14 14 12 13 14 10 4 3 4 5 5 4 5 5 5 4 3 1 3 5 11 14 18 24 28 30 35 34 29 24 17 10 7 13 16 17 20 25 27 29 32 35 37 40 40 40 41 42 40 40 43 45 45 45
7 7 7 7 7 8 7 7 8 11 12 12 12 10 6 3 3 3 4 5 6 5 5 4 2 1 0 2 5 10 12 10 11 13 11 9 11 11 6 2 3 6 6 4 4 6 6 6 5 3 3 8 17 22 21 22 26 30 33 34 29 21 16 11 8 11 16 18 20 24 27 29 32 35 37 39 43 43 42 42 42 41 42 43 45 46 46
7 7 7 7 8 7 6 7 9 12 12 12 10 6 3 2 2 2 3 4 4 4 5 4 1 1 1 3 5 10 9 8 10 9 6 7 10 7 3 2 3 4 3 3 5 7 6 4 3 2 7 18 26 27 24 23 25 28 27 22 14 8 6 7 11 16 19 23 26 28 30 32 36 39 40 42 43 44 44 44 43 43 43 43 44 45 46
8 8 8 8 8 8 7 10 12 12 11 9 6 3 2 2 2 2 4 5 3 3 5 4 2 3 3 5 7 9 9 8 7 4 3 6 7 3 2 3 3 1 2 3 5 3 2 3 2 1 6 15 19 20 21 21 21 20 16 9 5 6 10 14 17 20 22 26 28 29 31 34 37 40 42 44 45 46 46 45 45 44 44 45 45 46 46
9 9 9 10 10 9 9 11 11 9 7 4 2 1 2 3 3 2 4 4 2 2 4 4 5 6 6 6 6 7 9 10 8 5 5 6 6 4 1 2 2 1 2 5 4 2 1 3 2 1 5 11 11 11 14 16 14 11 7 5 8 14 18 21 23 25 27 29 31 32 35 37 39 42 43 44 45 47 47 48 47 47 46 46 47 47 47
12 13 13 12 12 10 9 8 7 5 3 1 1 2 2 2 3 4 4 3 1 3 5 6 6 5 6 8 8 9 11 12 11 9 7 7 6 4 2 3 2 1 2 5 3 1 0 2 2 3 9 11 9 8 10 9 7 7 9 13 18 22 24 26 29 31 33 34 35 38 41 44 44 44 45 44 44 45 46 48 48 48 48 49 50 50 50
15 15 14 13 11 9 7 5 4 3 2 1 1 1 1 2 3 3 2 1 2 4 5 5 5 7 11 13 12 11 13 14 11 7 4 4 5 4 3 2 1 1 4 5 3 2 1 1 4 7 7 7 8 9 9 8 11 17 22 26 28 29 30 32 35 38 40 40 40 43 46 47 48 48 47 46 45 46 46 47 48 49 50 52 53 53 53
16 15 14 12 8 6 5 4 2 2 1 1 1 1 2 2 2 1 1 2 3 4 5 7 9 11 13 14 15 15 15 14 11 7 4 4 4 3 1 1 1 2 3 3 2 1 2 4 7 8 8 11 11 11 12 17 24 31 35 37 37 37 37 38 41 44 46 47 47 48 49 50 50 50 49 47 46 46 48 49 51 52 53 54 55 55 55
15 14 12 9 6 5 4 2 1 1 1 1 1 1 1 3 2 1 1 3 4 4 7 12 14 12 12 15 17 15 10 7 6 5 5 6 4 0 1 2 4 3 3 2 1 3 4 5 7 9 12 13 14 17 24 31 36 38 40 44 46 45 44 45 48 51 53 53 53 53 53 53 54 53 53 53 53 53 54 56 56 56 56 55 54 55 55
15 14 10 6 4 4 3 1 1 2 1 0 1 2 3 1 1 2 1 3 6 8 12 16 16 14 16 18 15 9 7 7 6 5 4 3 2 1 2 4 3 2 2 3 3 4 5 5 5 8 12 15 22 30 37 40 42 42 43 47 49 49 49 50 52 54 56 56 56 57 58 58 58 58 59 60 60 60 59 59 58 57 56 55 54 55 55
14 12 9 3 1 3 3 1 1 2 1 1 1 0 2 2 2 4 5 8 10 12 15 17 17 16 18 17 11 10 12 10 6 4 3 1 2 4 4 3 3 2 2 3 5 6 7 6 6 11 17 24 33 39 42 44 46 47 47 49 51 53 54 55 56 58 59 60 61 61 62 62 61 61 60 60 60 59 59 58 57 55 54 53 54 55 55
11 9 7 2 1 3 2 0 1 2 2 2 3 3 2 4 6 8 9 11 13 16 18 18 16 15 16 14 10 10 10 6 4 4 4 1 2 4 3 2 3 3 3 4 6 7 7 7 12 18 27 35 39 41 44 47 50 52 53 54 56 58 59 60 61 62 62 62 62 62 61 61 61 60 59 58 58 59 59 58 57 55 53 53 54 55 54
9 6 4 1 1 2 1 1 3 6 6 5 6 7 8 10 12 12 13 15 17 17 16 15 14 13 13 11 9 8 7 4 4 6 5 2 1 3 3 3 4 4 3 5 6 6 7 14 22 30 37 41 42 44 48 51 53 55 57 58 58 59 59 59 59 59 59 59 58 57 57 58 59 58 58 58 58 58 58 58 57 56 55 54 53 52 51
7 2 1 2 3 5 5 6 9 12 11 9 10 11 12 14 15 16 17 17 17 14 13 15 15 11 8 7 5 4 4 3 3 3 2 1 2 2 2 3 6 6 4 4 6 9 16 26 35 40 43 46 48 50 52 54 54 55 55 56 57 58 58 58 58 58 58 58 57 57 57 58 57 57 57 56 56 57 58 58 57 56 55 53 52 50 49
4 1 4 4 4 4 5 5 7 8 8 9 11 14 15 17 19 20 19 17 16 15 15 15 12 8 5 4 3 1 3 4 3 1 2 3 3 2 3 6 8 6 6 9 15 23 31 39 43 45 47 49 51 52 52 52 52 53 55 56 58 59 58 58 58 59 58 58 58 58 58 58 57 57 56 56 56 56 56 56 55 54 53 51 51 50 49
3 3 5 6 7 7 7 7 7 10 13 17 20 21 20 20 22 22 20 18 17 15 12 8 5 3 4 3 1 2 3 3 1 1 4 4 3 2 3 8 9 11 16 25 32 37 42 45 47 48 50 50 50 50 50 52 53 55 57 58 59 59 58 59 59 59 58 58 58 58 58 58 58 57 56 56 55 54 54 53 53 52 52 52 52 51 50
4 5 6 9 12 14 14 16 17 20 22 24 24 22 22 22 22 22 20 18 16 14 12 8 3 1 2 3 4 4 4 2 2 4 6 5 4 5 7 12 17 24 31 37 41 44 47 49 50 51 51 51 51 52 53 55 57 58 58 59 59 59 59 60 60 59 59 58 58 58 58 58 57 56 55 54 52 51 51 51 52 53 52 53 53 52 51
Wind_Direction
25 27 30 32 33 36 41 45 46 44 43 46 59 66 59 64 56 16 17 48 66 71 69 25 26 68 75 82 89 89 113 98 85 87 53 35 39 43 59 124 107 187 202 133 157 198 220 197 187 239 235 249 291 211 161 145 147 124 78 297 121 112 81 14 282 285 305 315 336 6 20 79 147 244 148 138 149 137 150 177 185 199 208 157 94 266 269
24 26 29 30 32 35 38 43 47 47 49 49 60 77 73 67 56 38 32 46 74 72 93 99 57 42 70 75 54 43 57 55 43 7 6 21 32 40 29 71 71 46 71 86 145 210 247 239 221 221 218 252 317 247 169 140 114 120 171 136 95 241 235 47 334 328 338 342 349 348 339 286 222 242 191 150 120 101 116 146 115 260 218 168 154 252 261
24 25 28 30 31 33 34 38 42 45 47 42 46 79 77 66 58 46 44 57 80 80 86 123 125 122 84 68 29 18 50 42 26 26 44 31 30 49 18 18 67 54 49 48 21 28 22 309 332 13 267 255 301 216 201 192 171 206 188 155 137 204 216 126 94 313 304 303 307 297 268 252 246 228 203 199 140 129 152 136 117 242 235 162 172 237 265
25 25 28 29 31 32 32 34 36 38 40 36 41 74 69 59 52 34 39 53 67 68 62 78 112 133 105 76 15 25 61 20 17 46 62 32 39 71 39 46 77 48 35 27 335 326 15 16 348 326 264 263 288 226 209 201 208 204 165 161 134 93 238 208 188 201 223 244 256 253 113 266 270 264 230 207 184 152 127 110 175 202 179 199 227 238 273
26 26 28 28 31 32 32 34 35 36 36 32 44 64 63 61 40 359 20 40 51 55 46 46 67 110 114 94 24 8 346 321 1 45 58 33 27 50 93 99 125 114 25 16 288 274 337 13 249 240 239 258 290 249 215 214 226 184 154 176 129 84 281 239 204 222 238 250 264 294 25 275 266 272 255 209 182 157 153 194 214 160 128 263 251 222 244
27 28 28 27 30 33 34 35 35 37 39 38 54 62 61 70 72 50 56 44 28 38 29 32 51 59 65 96 63 3 359 355 357 355 2 24 23 11 4 348 268 203 188 96 277 297 337 314 250 245 250 283 334 323 246 207 226 160 138 193 129 118 262 247 197 249 264 272 280 288 278 267 265 266 263 238 182 178 195 220 214 158 197 256 260 237 250
28 28 28 28 29 31 34 37 37 41 44 44 60 65 64 78 85 67 72 85 88 58 13 18 50 50 48 75 53 28 26 3 329 266 349 360 15 34 350 323 332 291 243 67 301 279 337 318 285 262 262 292 334 321 290 153 95 52 92 304 65 137 257 279 36 290 283 276 283 281 240 266 279 265 257 228 194 203 213 231 226 194 234 256 266 280 282
26 27 27 28 30 30 33 36 37 42 45 47 60 66 64 71 77 77 86 80 54 39 24 21 55 43 32 50 37 49 87 353 313 272 98 342 344 45 334 307 324 307 189 67 241 234 226 289 279 218 101 305 243 230 267 132 90 27 66 3 25 142 265 339 63 317 291 284 313 335 212 235 269 276 267 218 205 225 227 239 236 216 248 261 269 281 279
24 25 26 26 28 30 32 34 36 39 42 50 60 63 60 63 67 75 86 64 17 18 22 35 73 44 14 40 14 301 144 209 287 271 188 201 245 223 219 287 304 77 64 269 255 262 265 266 267 248 236 255 226 225 258 138 120 91 126 11 94 142 283 358 55 341 292 295 348 332 286 246 260 279 278 235 199 216 221 228 207 194 226 257 276 270 262
21 24 26 26 28 29 30 33 35 37 43 51 57 57 53 54 58 64 79 66 10 16 17 27 63 58 317 278 234 287 247 211 295 329 244 205 243 263 247 249 297 333 320 277 272 294 297 283 285 277 259 258 253 255 265 194 144 158 157 141 138 141 124 9 34 327 275 290 325 317 317 332 296 268 248 204 208 219 224 245 224 204 200 199 233 245 262
16 20 24 26 29 30 31 33 33 35 41 46 49 53 50 47 49 53 69 78 17 7 17 36 55 120 236 265 254 239 241 243 133 80 306 301 356 331 301 228 256 278 279 291 307 312 304 297 291 277 268 270 265 256 251 222 162 169 164 144 122 115 107 71 59 224 275 300 326 335 342 332 275 236 185 209 261 239 219 244 239 214 198 214 255 269 285
11 15 19 22 28 31 32 35 34 35 41 40 40 48 47 44 46 46 56 86 36 5 44 70 51 216 258 300 277 250 286 301 244 232 273 285 319 331 305 231 213 266 287 313 320 316 308 300 283 263 259 271 260 184 174 159 105 164 177 151 132 110 108 162 153 165 272 311 358 354 326 255 256 274 247 230 246 211 212 254 260 238 218 235 265 275 274
7 10 13 16 22 26 30 35 35 36 40 37 37 44 41 38 43 43 50 83 72 357 52 77 340 360 334 310 315 305 311 319 296 279 273 276 293 314 299 261 248 278 301 312 317 319 314 308 293 263 261 344 53 78 85 65 44 58 131 136 140 137 136 176 164 173 268 339 23 323 290 281 288 306 351 138 128 124 215 286 282 264 218 208 245 262 264
7 8 10 12 16 19 22 27 30 33 37 36 36 40 38 36 42 43 43 59 103 21 47 19 342 3 357 335 353 338 329 344 323 299 290 284 288 304 307 292 287 301 311 312 318 328 328 353 5 341 329 6 14 12 49 42 31 39 33 18 164 143 136 176 218 206 198 206 260 269 307 310 303 319 67 136 108 110 122 296 290 285 251 208 231 260 270
8 9 10 10 12 15 16 17 20 24 28 33 35 36 38 40 42 41 39 50 90 67 44 33 345 353 2 15 14 355 340 360 348 309 298 295 303 323 323 316 312 317 326 326 334 24 41 354 7 353 337 354 346 306 302 64 20 17 17 21 148 133 150 177 194 253 117 98 304 312 335 306 281 278 270 184 139 163 149 136 290 289 286 258 236 257 284
6 6 9 11 11 13 14 13 15 15 18 26 28 29 39 42 41 42 39 42 66 58 28 32 9 359 11 29 18 11 354 346 347 333 326 337 355 353 344 337 325 327 349 349 2 65 47 349 145 76 301 287 257 292 298 301 321 354 34 58 69 53 40 117 136 291 52 108 240 256 243 265 272 275 258 189 235 258 103 31 289 276 322 335 300 280 299
5 5 8 10 10 12 14 13 14 14 14 19 20 20 32 38 38 41 38 43 69 75 27 21 13 8 20 19 3 13 19 355 360 8 330 322 338 356 356 348 340 360 6 1 15 56 45 48 111 309 271 237 155 302 300 323 309 304 350 47 53 38 14 69 166 253 219 141 211 252 238 256 269 282 294 290 271 269 46 340 291 291 337 337 326 309 311
8 9 9 11 11 11 13 13 14 15 15 18 18 17 25 35 36 34 34 46 67 62 31 28 28 28 37 32 3 10 13 360 2 345 296 307 346 4 350 338 339 346 348 3 46 52 33 287 245 278 269 269 93 290 292 319 282 273 205 107 73 30 329 156 171 214 189 174 238 271 257 257 264 281 316 326 227 41 15 300 298 325 329 327 323 316 316
12 12 12 13 13 12 12 12 12 12 14 16 17 19 24 30 30 27 32 42 52 57 51 42 35 32 32 22 9 8 4 358 358 358 346 340 347 342 330 322 343 344 349 46 94 91 36 275 256 141 259 289 308 163 274 265 244 215 139 215 282 245 148 71 151 175 189 177 198 274 286 276 252 232 216 80 38 332 312 303 316 322 321 321 321 318 319
15 16 15 15 15 15 14 13 11 10 11 11 13 18 21 22 22 22 22 28 48 73 61 33 27 37 43 40 35 28 19 10 360 1 40 290 318 335 341 343 351 342 2 58 6 267 166 264 283 134 213 266 272 92 288 281 260 212 188 234 247 182 165 266 209 172 143 91 65 304 287 262 168 139 122 121 271 300 308 315 318 319 319 322 322 319 322
20 21 21 21 21 20 18 15 12 10 9 10 10 10 13 18 21 20 17 23 48 72 50 39 53 61 53 43 35 28 24 20 5 350 333 298 311 340 351 254 308 324 323 107 307 262 198 221 262 252 230 259 308 256 261 300 298 267 192 214 253 189 174 245 244 191 133 142 218 248 255 263 283 301 287 286 292 301 310 315 315 317 322 326 323 322 325
25 25 25 24 24 23 20 17 15 11 9 11 10 8 15 23 25 24 26 30 45 67 72 78 80 63 41 31 30 29 28 25 14 4 350 320 309 301 268 267 279 283 268 269 287 286 276 213 224 313 299 290 279 254 202 244 293 300 299 189 254 212 186 203 259 226 182 219 254 264 284 299 302 299 303 307 308 313 320 321 317 320 326 330 329 328 332
25 24 25 24 24 23 20 17 15 12 10 10 10 12 18 23 25 30 36 35 53 83 94 96 80 42 27 27 32 30 25 19 13 7 357 332 303 297 289 284 283 270 257 267 298 309 299 225 206 324 299 231 226 279 284 241 260 283 273 250 254 232 216 229 281 260 266 272 268 273 290 301 306 311 311 311 315 326 333 332 328 330 336 339 338 336 338
20 20 21 21 21 21 19 17 16 14 11 11 12 14 14 17 25 35 34 29 59 99 100 92 53 18 14 20 26 24 23 24 21 16 10 357 321 306 302 299 299 282 255 273 301 315 315 286 243 283 270 235 203 276 285 262 242 242 268 285 303 313 276 270 260 284 309 289 280 292 302 303 306 309 308 315 331 339 343 346 343 342 346 347 347 346 344
14 16 16 16 16 16 15 15 16 15 14 14 15 14 13 17 25 29 26 28 58 100 104 92 17 4 8 22 29 28 32 30 23 19 17 9 353 335 317 308 305 291 276 281 291 296 291 270 231 205 256 246 222 222 251 252 240 205 264 285 295 350 347 315 243 260 275 270 285 300 305 304 306 305 310 336 345 345 350 356 351 348 352 353 352 353 350
9 11 12 12 12 12 12 12 13 15 16 17 16 16 19 21 21 22 26 33 51 79 73 38 345 359 16 34 32 34 38 25 15 15 15 9 4 357 342 330 320 302 289 289 292 287 272 247 220 206 228 228 224 223 233 258 267 262 256 258 259 293 302 284 235 282 269 266 289 302 306 308 307 299 329 343 343 345 351 353 353 353 354 353 352 353 351
5 7 9 9 9 8 9 10 11 13 16 19 17 17 20 20 17 21 29 34 40 49 18 345 342 9 32 40 37 34 22 7 5 7 6 3 3 360 353 348 342 327 312 305 295 276 250 233 225 212 218 238 254 253 250 264 277 272 258 256 256 274 279 220 149 293 274 277 301 308 307 302 301 307 330 342 345 348 346 347 351 352 350 348 346 346 347
4 5 7 8 7 6 7 8 9 11 15 17 16 14 14 14 16 21 25 28 30 23 329 322 340 17 38 39 32 19 4 1 5 5 2 358 356 354 353 352 349 344 335 313 281 235 211 222 230 223 231 254 270 267 260 274 288 271 260 258 247 241 241 207 179 245 273 289 300 304 300 291 297 310 326 341 350 347 342 341 343 343 344 344 342 340 342
3 3 3 4 5 6 5 6 8 10 12 12 9 9 9 9 12 14 13 13 14 9 350 343 4 31 46 37 20 10 7 7 6 3 1 358 354 353 352 347 343 340 331 303 256 228 234 243 242 246 251 248 260 290 299 306 289 268 268 270 257 240 243 253 248 257 281 294 301 305 303 300 305 317 329 343 346 341 338 337 336 335 337 339 338 337 338
357 357 358 359 3 4 3 5 7 8 10 10 4 4 10 7 2 3 2 2 3 2 359 360 17 31 48 35 19 16 18 13 7 7 5 359 355 354 349 341 335 329 319 299 263 249 259 256 244 244 241 237 240 283 338 286 273 270 278 278 262 242 253 276 285 286 293 301 307 309 306 307 319 331 335 338 341 337 333 333 334 334 332 332 332 334 336
352 352 352 351 357 2 1 2 6 7 9 9 6 9 16 1 350 352 353 353 358 3 2 354 348 358 23 24 16 16 15 10 7 9 4 356 354 353 345 336 329 319 307 293 275 264 260 246 234 226 224 227 226 206 218 246 256 277 283 280 265 259 272 287 295 298 300 305 310 314 316 322 332 332 326 330 338 339 334 332 334 335 332 329 328 329 331
345 346 346 345 349 356 355 356 2 6 6 7 11 17 10 347 341 347 350 350 358 7 8 8 7 353 349 357 1 4 6 7 7 4 0 356 352 348 342 331 322 312 300 288 275 266 260 244 236 236 230 225 220 207 202 179 216 266 277 280 279 282 288 296 302 305 305 305 305 312 325 328 328 325 321 322 330 334 334 333 334 334 332 329 329 329 330
339 339 342 338 338 346 350 351 355 358 359 360 2 4 355 340 337 345 349 350 2 18 33 49 58 329 328 342 348 356 360 2 360 355 354 354 348 340 333 323 316 306 288 271 256 257 277 262 241 255 252 227 212 214 221 219 241 261 274 284 289 290 293 302 307 305 298 298 305 310 318 320 320 320 319 319 324 329 332 332 332 332 331 329 328 330 330
336 336 338 334 333 338 341 343 346 348 349 350 348 348 346 340 341 352 360 2 13 35 53 60 77 247 312 327 336 358 359 357 353 348 346 345 341 335 326 316 309 296 271 262 252 259 282 271 252 274 261 211 203 233 273 249 255 263 277 290 294 293 298 306 305 287 251 291 310 317 323 322 320 321 322 323 325 329 331 331 330 330 329 327 327 327 328
334 336 336 332 331 331 331 335 340 340 338 338 338 340 342 345 357 19 30 29 30 51 65 54 68 94 340 335 324 349 353 350 345 341 336 330 332 332 324 310 301 282 259 257 251 257 272 265 254 269 234 181 201 232 231 252 267 275 286 293 295 297 302 302 288 254 278 298 302 312 322 324 323 325 327 328 329 330 330 329 328 326 324 323 324 326 326
332 334 334 332 329 327 325 325 331 334 332 329 330 335 341 353 23 43 51 49 51 66 60 46 78 124 39 329 285 326 344 344 338 336 333 325 326 327 322 305 290 281 266 253 252 262 258 241 248 266 161 140 218 236 240 261 277 284 290 294 297 300 298 286 263 276 306 307 302 308 317 320 321 324 327 328 329 329 326 325 325 325 322 321 323 325 326
332 332 333 330 328 329 327 322 325 327 325 321 322 327 331 343 18 44 54 50 54 62 60 66 101 153 185 251 287 320 336 336 334 337 334 323 319 316 307 284 291 299 298 272 247 260 259 237 227 234 224 239 251 258 268 278 282 285 291 297 299 298 288 274 276 303 315 318 316 316 320 321 321 324 326 326 326 327 325 323 323 322 321 320 322 323 324
335 337 338 337 337 338 330 319 319 319 316 315 318 318 318 331 353 26 21 21 40 56 54 61 77 304 243 244 304 326 326 325 335 339 336 337 334 319 290 286 289 296 320 293 258 264 269 243 208 216 258 260 264 272 279 281 282 287 292 293 293 288 288 311 326 325 323 324 323 323 324 322 321 322 324 323 322 322 321 320 320 320 319 318 319 320 321
344 347 348 345 345 340 322 314 317 316 310 311 314 306 319 351 351 338 356 4 16 33 31 28 1 329 294 274 304 325 323 322 330 326 315 335 331 297 278 324 300 281 346 302 265 249 259 264 284 355 274 267 272 280 280 278 282 287 284 274 279 311 320 327 331 330 326 321 319 319 320 318 317 318 319 319 320 320 320 320 320 319 319 318 318 318 318
346 351 351 346 343 335 320 315 319 318 311 311 324 324 4 32 31 357 359 9 12 17 15 357 329 322 313 295 302 321 325 320 311 293 294 301 283 256 297 323 269 249 309 275 250 169 195 262 290 351 265 266 276 285 281 278 282 284 276 285 321 327 325 323 324 326 326 322 319 319 321 321 320 318 318 318 319 319 320 321 321 320 320 319 318 318 318
352 353 350 343 338 334 326 318 319 320 308 297 340 350 11 33 19 7 17 28 348 331 343 339 329 331 333 322 308 306 315 316 304 291 288 278 255 241 259 270 255 237 250 256 263 50 131 254 269 257 259 268 285 301 298 293 301 322 333 334 331 328 325 323 323 325 327 327 325 324 325 325 323 321 320 319 318 318 318 320 320 320 320 319 319 320 321
352 348 343 339 336 335 333 329 327 326 320 305 12 17 24 14 360 6 32 45 326 331 341 343 335 327 325 320 310 304 312 315 304 286 281 275 250 231 235 288 327 249 242 262 312 40 80 267 259 252 264 296 318 321 324 332 339 340 339 337 336 334 331 329 328 329 330 329 327 326 326 325 323 322 321 320 319 319 319 319 318 319 320 321 321 321 321
349 345 343 342 342 344 345 342 340 350 15 47 58 19 360 3 6 18 24 354 342 343 342 337 332 325 322 321 318 313 309 303 289 269 264 275 270 260 297 338 273 233 261 305 341 264 240 239 242 261 309 339 338 334 343 345 341 339 338 337 338 338 335 332 331 330 329 328 327 326 325 324 322 322 322 320 319 319 319 319 320 320 321 322 321 320 320
351 350 346 340 346 3 359 344 357 32 39 41 55 69 27 9 349 293 332 350 342 335 334 336 336 332 327 327 325 317 300 285 276 265 261 267 271 359 60 253 247 261 302 316 256 247 248 237 250 291 329 345 343 340 341 340 339 339 338 336 336 336 334 332 330 328 327 326 326 325 324 323 322 322 323 322 322 321 321 321 322 322 321 320 318 317 318
360 1 357 349 1 12 357 323 28 40 35 185 139 152 154 164 253 223 233 323 323 320 326 332 334 331 328 330 325 298 269 279 283 259 245 260 272 222 226 247 268 315 316 268 258 273 269 261 293 334 350 352 345 341 339 338 339 339 336 333 333 332 330 328 327 326 325 325 325 325 324 324 323 323 323 323 323 322 321 320 320 319 318 317 316 316 317
9 8 7 4 5 8 7 24 45 29 51 82 46 158 185 206 251 268 290 311 320 323 325 328 330 326 323 324 310 271 267 280 277 245 233 273 261 248 250 263 283 301 281 258 258 258 256 272 327 344 339 338 338 338 337 336 336 335 332 329 328 327 327 327 326 325 324 324 324 324 323 322 322 321 320 319 319 318 317 317 317 316 316 314 314 314 316
15 10 6 360 311 346 358 280 269 323 345 2 351 333 283 270 285 294 300 308 316 320 319 322 326 323 315 310 294 266 261 260 249 251 258 249 250 270 287 284 258 246 231 240 251 251 260 294 321 326 327 331 334 335 334 333 331 329 327 326 325 325 325 325 324 322 322 321 321 320 319 318 318 317 316 315 315 315 315 316 315 315 314 312 312 313 315
11 2 357 343 257 283 296 297 315 317 315 309 305 300 293 289 292 300 307 310 313 317 319 325 333 329 312 294 275 261 259 260 256 253 241 203 245 288 283 251 250 246 219 229 247 256 281 304 314 319 324 328 330 330 329 327 325 324 323 322 321 321 320 319 318 317 317 316 315 314 314 314 314 314 313 313 313 314 314 315 315 314 314 313 314 314 315
6 357 253 234 255 264 273 293 303 302 301 300 299 298 299 300 301 306 312 313 313 316 321 324 326 322 301 283 277 266 248 232 232 249 250 231 249 247 219 238 266 269 245 237 264 287 301 310 316 319 321 323 323 323 322 320 319 318 317 317 316 315 315 314 314 314 314 313 313 312 312 313 312 312 312 312 312 313 314 314 314 314 315 316 316 316 316
8 233 216 224 245 266 284 299 298 290 290 296 298 298 300 301 302 307 312 311 308 310 316 317 312 299 287 302 334 338 240 233 232 281 286 247 219 218 245 254 260 264 269 281 292 301 307 312 315 315 315 316 316 316 314 314 313 313 313 313 312 312 312 312 312 312 312 312 312 312 312 312 312 312 312 312 312 312 313 313 314 316 317 318 317 317 316
330 258 232 228 236 254 278 289 279 273 278 287 292 296 297 296 299 306 311 309 307 311 314 310 298 297 306 308 285 251 264 264 236 260 261 240 187 159 244 252 259 276 287 291 296 301 306 309 310 310 310 311 311 310 310 311 311 310 310 310 311 311 311 311 311 311 311 311 312 312 312 312 312 312 312 312 312 312 312 313 315 317 317 317 318 317 316
283 268 261 259 262 269 276 276 273 275 281 286 292 296 296 295 300 307 309 305 301 298 290 278 265 275 278 260 252 268 290 290 263 265 267 249 217 220 249 264 276 286 291 294 298 301 303 304 305 305 306 307 307 308 309 309 309 309 310 310 310 310 310 310 310 310 310 310 311 311 312 312 312 313 313 313 313 312 311 312 314 316 316 316 316 316 315